Location: *
(57.8420°S, 159.8600°W)
Time: 04:06:11
(UTC+00:00)

SMAP - Pass Details

Date: 18 May 2021
Orbit: 681 x 683 km, 98.1° (Epoch: 23 June)

Event Time Altitude Azimuth Distance (km) Brightness Sun altitude
Exits shadow 05:06:00 29° 150° (SSE) 1,288 4.2 -20.5°
Maximum altitude 05:08:23 63° 78° (ENE) 781 3.0 -20.8°
Drops below altitude 10° 05:13:03 10° 356° (N) 2,147 5.7 -21.4°
Sets 05:15:18 0° 352° (N) 3,056 6.6 -21.7°
